Time,TemperatureF,DewpointF,PressureIn,WindDirection,WindDirectionDegrees,WindSpeedMPH,WindSpeedGustMPH,Humidity,HourlyPrecipIn,Conditions,Clouds,dailyrainin,SoftwareType,DateUTC
2013-02-01 00:00:00,18.0,14.3,29.89,West,267,15.0,15.0,85,0.00,,,0.00,Wunderground v.1.15,2013-02-01 05:00:00,
2013-02-01 00:05:00,18.0,14.0,29.89,West,271,15.0,15.0,84,0.00,,,0.00,Wunderground v.1.15,2013-02-01 05:05:00,
2013-02-01 00:10:00,18.3,14.3,29.89,West,259,14.0,14.0,84,0.00,,,0.00,Wunderground v.1.15,2013-02-01 05:10:00,
2013-02-01 00:15:00,18.4,14.4,29.89,WSW,254,14.0,16.0,84,0.00,,,0.00,Wunderground v.1.15,2013-02-01 05:15:00,
2013-02-01 00:20:00,17.7,14.8,29.90,West,281,14.0,15.0,88,0.00,,,0.00,Wunderground v.1.15,2013-02-01 05:20:00,
2013-02-01 00:30:00,17.7,14.5,29.90,WNW,288,13.0,13.0,87,0.00,,,0.00,Wunderground v.1.15,2013-02-01 05:30:00,
2013-02-01 00:35:00,17.9,14.7,29.90,West,275,13.0,13.0,87,0.00,,,0.00,Wunderground v.1.15,2013-02-01 05:35:00,
2013-02-01 00:45:00,18.0,14.3,29.90,WNW,282,13.0,13.0,85,0.00,,,0.00,Wunderground v.1.15,2013-02-01 05:45:00,
2013-02-01 00:50:00,18.1,14.1,29.91,WNW,292,12.0,14.0,84,0.00,,,0.00,Wunderground v.1.15,2013-02-01 05:50:00,
2013-02-01 00:55:00,18.2,13.3,29.90,WNW,286,13.0,15.0,81,0.00,,,0.00,Wunderground v.1.15,2013-02-01 05:55:00,
2013-02-01 01:00:00,18.2,13.9,29.91,West,273,13.0,13.0,83,0.00,,,0.00,Wunderground v.1.15,2013-02-01 06:00:00,
2013-02-01 01:10:00,17.9,13.1,29.92,West,275,13.0,13.0,81,0.00,,,0.00,Wunderground v.1.15,2013-02-01 06:10:00,
2013-02-01 01:15:00,18.1,13.3,29.92,WNW,288,13.0,13.0,81,0.00,,,0.00,Wunderground v.1.15,2013-02-01 06:15:00,
2013-02-01 01:20:00,18.4,13.0,29.92,WNW,289,12.0,12.0,79,0.00,,,0.00,Wunderground v.1.15,2013-02-01 06:20:00,
2013-02-01 01:25:00,18.2,12.5,29.92,WNW,288,12.0,13.0,78,0.00,,,0.00,Wunderground v.1.15,2013-02-01 06:25:00,
2013-02-01 01:35:00,18.4,12.7,29.92,West,281,12.0,12.0,78,0.00,,,0.00,Wunderground v.1.15,2013-02-01 06:35:00,
2013-02-01 01:40:00,18.6,13.2,29.92,West,272,12.0,15.0,79,0.00,,,0.00,Wunderground v.1.15,2013-02-01 06:40:00,
2013-02-01 01:50:00,18.5,12.8,29.92,WNW,286,13.0,13.0,78,0.00,,,0.00,Wunderground v.1.15,2013-02-01 06:50:00,
2013-02-01 01:55:00,18.3,13.4,29.92,West,269,13.0,13.0,81,0.00,,,0.00,Wunderground v.1.15,2013-02-01 06:55:00,
2013-02-01 02:00:00,18.4,13.8,29.93,West,272,13.0,14.0,82,0.00,,,0.00,Wunderground v.1.15,2013-02-01 07:00:00,
2013-02-01 02:10:00,18.1,12.7,29.93,WSW,254,13.0,14.0,79,0.00,,,0.00,Wunderground v.1.15,2013-02-01 07:10:00,
2013-02-01 02:20:00,18.2,11.9,29.94,West,264,12.0,12.0,76,0.00,,,0.00,Wunderground v.1.15,2013-02-01 07:20:00,
2013-02-01 02:25:00,18.2,12.5,29.94,West,279,12.0,12.0,78,0.00,,,0.00,Wunderground v.1.15,2013-02-01 07:25:00,
2013-02-01 02:30:00,18.2,12.8,29.94,WNW,285,12.0,12.0,79,0.00,,,0.00,Wunderground v.1.15,2013-02-01 07:30:00,
2013-02-01 02:40:00,17.9,12.5,29.94,WNW,300,12.0,12.0,79,0.00,,,0.00,Wunderground v.1.15,2013-02-01 07:40:00,
2013-02-01 02:45:00,18.0,13.2,29.95,WNW,289,12.0,12.0,81,0.00,,,0.00,Wunderground v.1.15,2013-02-01 07:45:00,
2013-02-01 02:55:00,17.2,14.0,29.95,West,263,14.0,16.0,87,0.00,,,0.00,Wunderground v.1.15,2013-02-01 07:55:00,
2013-02-01 03:00:00,17.7,13.4,29.95,West,259,14.0,15.0,83,0.00,,,0.00,Wunderground v.1.15,2013-02-01 08:00:00,
2013-02-01 03:05:00,17.7,13.4,29.95,West,261,14.0,15.0,83,0.00,,,0.00,Wunderground v.1.15,2013-02-01 08:05:00,
2013-02-01 03:15:00,17.3,13.8,29.96,West,269,14.0,15.0,86,0.00,,,0.00,Wunderground v.1.15,2013-02-01 08:15:00,
2013-02-01 03:20:00,17.3,14.1,29.96,West,265,15.0,15.0,87,0.00,,,0.00,Wunderground v.1.15,2013-02-01 08:20:00,
2013-02-01 03:25:00,17.2,12.6,29.96,West,267,15.0,15.0,82,0.00,,,0.00,Wunderground v.1.15,2013-02-01 08:25:00,
2013-02-01 03:30:00,17.4,12.8,29.97,West,273,14.0,14.0,82,0.00,,,0.00,Wunderground v.1.15,2013-02-01 08:30:00,
2013-02-01 03:35:00,17.2,13.5,29.97,West,259,14.0,15.0,85,0.00,,,0.00,Wunderground v.1.15,2013-02-01 08:35:00,
2013-02-01 03:45:00,17.0,13.3,29.97,WSW,256,14.0,15.0,85,0.00,,,0.00,Wunderground v.1.15,2013-02-01 08:45:00,
2013-02-01 03:50:00,17.0,13.3,29.98,WSW,252,13.0,13.0,85,0.00,,,0.00,Wunderground v.1.15,2013-02-01 08:50:00,
2013-02-01 04:00:00,17.3,13.3,29.98,West,264,13.0,16.0,84,0.00,,,0.00,Wunderground v.1.15,2013-02-01 09:00:00,
2013-02-01 04:05:00,17.1,12.8,29.98,WSW,254,14.0,16.0,83,0.00,,,0.00,Wunderground v.1.15,2013-02-01 09:05:00,
2013-02-01 04:10:00,17.2,12.6,29.98,West,268,14.0,14.0,82,0.00,,,0.00,Wunderground v.1.15,2013-02-01 09:10:00,
2013-02-01 04:20:00,17.1,13.1,29.99,West,278,14.0,14.0,84,0.00,,,0.00,Wunderground v.1.15,2013-02-01 09:20:00,
2013-02-01 04:25:00,17.0,12.5,29.99,West,277,14.0,14.0,82,0.00,,,0.00,Wunderground v.1.15,2013-02-01 09:25:00,
2013-02-01 04:30:00,16.9,12.4,29.99,WNW,288,12.0,12.0,82,0.00,,,0.00,Wunderground v.1.15,2013-02-01 09:30:00,
2013-02-01 04:35:00,17.1,12.3,29.99,West,280,12.0,15.0,81,0.00,,,0.00,Wunderground v.1.15,2013-02-01 09:35:00,
2013-02-01 04:40:00,17.0,13.0,29.99,West,259,13.0,16.0,84,0.00,,,0.00,Wunderground v.1.15,2013-02-01 09:40:00,
2013-02-01 04:50:00,17.0,13.0,30.00,WNW,284,16.0,16.0,84,0.00,,,0.00,Wunderground v.1.15,2013-02-01 09:50:00,
2013-02-01 04:55:00,17.1,12.6,30.00,West,259,14.0,16.0,82,0.00,,,0.00,Wunderground v.1.15,2013-02-01 09:55:00,
2013-02-01 05:05:00,17.0,12.7,30.00,West,263,13.0,16.0,83,0.00,,,0.00,Wunderground v.1.15,2013-02-01 10:05:00,
2013-02-01 05:10:00,17.1,13.1,30.00,WSW,258,15.0,15.0,84,0.00,,,0.00,Wunderground v.1.15,2013-02-01 10:10:00,
2013-02-01 05:20:00,17.3,12.7,30.01,WSW,256,16.0,20.0,82,0.00,,,0.00,Wunderground v.1.15,2013-02-01 10:20:00,
2013-02-01 05:25:00,16.9,12.6,30.01,WSW,250,16.0,20.0,83,0.00,,,0.00,Wunderground v.1.15,2013-02-01 10:25:00,
2013-02-01 05:30:00,16.9,11.8,30.01,WSW,255,16.0,16.0,80,0.00,,,0.00,Wunderground v.1.15,2013-02-01 10:30:00,
2013-02-01 05:35:00,17.1,11.7,30.02,West,267,14.0,16.0,79,0.00,,,0.00,Wunderground v.1.15,2013-02-01 10:35:00,
2013-02-01 05:40:00,17.0,12.2,30.02,West,267,14.0,16.0,81,0.00,,,0.00,Wunderground v.1.15,2013-02-01 10:40:00,
2013-02-01 05:50:00,16.6,12.6,30.02,West,267,12.0,15.0,84,0.00,,,0.00,Wunderground v.1.15,2013-02-01 10:50:00,
2013-02-01 05:55:00,16.7,12.7,30.03,West,266,13.0,15.0,84,0.00,,,0.00,Wunderground v.1.15,2013-02-01 10:55:00,
2013-02-01 06:00:00,16.5,12.8,30.03,West,269,13.0,15.0,85,0.00,,,0.00,Wunderground v.1.15,2013-02-01 11:00:00,
2013-02-01 06:05:00,16.3,12.8,30.03,West,273,13.0,15.0,86,0.00,,,0.00,Wunderground v.1.15,2013-02-01 11:05:00,
2013-02-01 06:10:00,16.6,12.6,30.03,West,269,15.0,15.0,84,0.00,,,0.00,Wunderground v.1.15,2013-02-01 11:10:00,
2013-02-01 06:15:00,16.9,12.6,30.03,WSW,254,16.0,16.0,83,0.00,,,0.00,Wunderground v.1.15,2013-02-01 11:15:00,
2013-02-01 06:25:00,16.6,12.3,30.04,West,264,14.0,16.0,83,0.00,,,0.00,Wunderground v.1.15,2013-02-01 11:25:00,
2013-02-01 06:30:00,16.6,11.5,30.04,West,263,14.0,14.0,80,0.00,,,0.00,Wunderground v.1.15,2013-02-01 11:30:00,
2013-02-01 06:35:00,16.6,12.3,30.04,West,275,14.0,14.0,83,0.00,,,0.00,Wunderground v.1.15,2013-02-01 11:35:00,
2013-02-01 06:40:00,16.6,11.8,30.05,WSW,254,14.0,18.0,81,0.00,,,0.00,Wunderground v.1.15,2013-02-01 11:40:00,
2013-02-01 06:45:00,16.8,12.0,30.05,West,269,14.0,18.0,81,0.00,,,0.00,Wunderground v.1.15,2013-02-01 11:45:00,
2013-02-01 06:55:00,16.8,11.1,30.06,WSW,246,13.0,15.0,78,0.00,,,0.00,Wunderground v.1.15,2013-02-01 11:55:00,
2013-02-01 07:00:00,16.8,10.5,30.06,West,265,13.0,13.0,76,0.00,,,0.00,Wunderground v.1.15,2013-02-01 12:00:00,
2013-02-01 07:05:00,16.6,10.6,30.06,West,265,12.0,13.0,77,0.00,,,0.00,Wunderground v.1.15,2013-02-01 12:05:00,
2013-02-01 07:10:00,16.6,10.9,30.07,West,279,13.0,13.0,78,0.00,,,0.00,Wunderground v.1.15,2013-02-01 12:10:00,
2013-02-01 07:15:00,16.6,10.1,30.07,West,271,13.0,14.0,75,0.00,,,0.00,Wunderground v.1.15,2013-02-01 12:15:00,
2013-02-01 07:20:00,16.6,10.1,30.07,West,264,12.0,15.0,75,0.00,,,0.00,Wunderground v.1.15,2013-02-01 12:20:00,
2013-02-01 07:30:00,16.3,10.4,30.08,West,278,13.0,13.0,77,0.00,,,0.00,Wunderground v.1.15,2013-02-01 12:30:00,
2013-02-01 07:35:00,16.5,10.5,30.08,West,267,14.0,14.0,77,0.00,,,0.00,Wunderground v.1.15,2013-02-01 12:35:00,
2013-02-01 07:40:00,16.7,11.0,30.08,WSW,253,14.0,14.0,78,0.00,,,0.00,Wunderground v.1.15,2013-02-01 12:40:00,
2013-02-01 07:45:00,16.5,10.3,30.08,West,259,14.0,14.0,76,0.00,,,0.00,Wunderground v.1.15,2013-02-01 12:45:00,
2013-02-01 07:50:00,16.3,10.9,30.08,West,259,13.0,15.0,79,0.00,,,0.00,Wunderground v.1.15,2013-02-01 12:50:00,
2013-02-01 08:00:00,16.0,11.5,30.09,West,276,14.0,14.0,82,0.00,,,0.00,Wunderground v.1.15,2013-02-01 13:00:00,
2013-02-01 08:05:00,16.0,11.7,30.09,West,269,13.0,14.0,83,0.00,,,0.00,Wunderground v.1.15,2013-02-01 13:05:00,
2013-02-01 08:10:00,15.9,14.0,30.09,WSW,237,14.0,15.0,92,0.00,,,0.00,Wunderground v.1.15,2013-02-01 13:10:00,
2013-02-01 08:15:00,15.8,12.1,30.10,WSW,256,14.0,15.0,85,0.00,,,0.00,Wunderground v.1.15,2013-02-01 13:15:00,
2013-02-01 08:20:00,16.1,11.3,30.10,West,259,14.0,15.0,81,0.00,,,0.00,Wunderground v.1.15,2013-02-01 13:20:00,
2013-02-01 08:25:00,15.8,11.3,30.10,West,263,14.0,15.0,82,0.00,,,0.00,Wunderground v.1.15,2013-02-01 13:25:00,
2013-02-01 08:35:00,15.5,12.3,30.11,West,264,14.0,18.0,87,0.00,,,0.00,Wunderground v.1.15,2013-02-01 13:35:00,
2013-02-01 08:40:00,15.5,12.6,30.11,WSW,252,14.0,14.0,88,0.00,,,0.00,Wunderground v.1.15,2013-02-01 13:40:00,
2013-02-01 08:45:00,15.6,12.9,30.11,West,264,15.0,15.0,89,0.00,,,0.00,Wunderground v.1.15,2013-02-01 13:45:00,
2013-02-01 08:50:00,15.3,12.6,30.11,WSW,252,14.0,14.0,89,0.00,,,0.00,Wunderground v.1.15,2013-02-01 13:50:00,
2013-02-01 08:55:00,15.6,12.9,30.11,West,265,14.0,18.0,89,0.00,,,0.00,Wunderground v.1.15,2013-02-01 13:55:00,
2013-02-01 09:05:00,15.3,12.6,30.12,West,276,13.0,14.0,89,0.00,,,0.00,Wunderground v.1.15,2013-02-01 14:05:00,
2013-02-01 09:10:00,15.4,12.5,30.12,West,260,12.0,12.0,88,0.00,,,0.00,Wunderground v.1.15,2013-02-01 14:10:00,
2013-02-01 09:15:00,15.6,12.7,30.12,West,268,13.0,13.0,88,0.00,,,0.00,Wunderground v.1.15,2013-02-01 14:15:00,
2013-02-01 09:20:00,15.7,12.8,30.12,WSW,251,12.0,12.0,88,0.00,,,0.00,Wunderground v.1.15,2013-02-01 14:20:00,
2013-02-01 09:25:00,16.0,13.1,30.12,WSW,253,12.0,12.0,88,0.00,,,0.00,Wunderground v.1.15,2013-02-01 14:25:00,
2013-02-01 09:30:00,15.7,12.0,30.12,WSW,248,13.0,13.0,85,0.00,,,0.00,Wunderground v.1.15,2013-02-01 14:30:00,
2013-02-01 09:40:00,15.6,12.2,30.13,West,267,13.0,13.0,86,0.00,,,0.00,Wunderground v.1.15,2013-02-01 14:40:00,
2013-02-01 09:45:00,15.3,11.9,30.13,WSW,254,13.0,14.0,86,0.00,,,0.00,Wunderground v.1.15,2013-02-01 14:45:00,
2013-02-01 09:50:00,15.7,12.0,30.13,West,265,13.0,18.0,85,0.00,,,0.00,Wunderground v.1.15,2013-02-01 14:50:00,
2013-02-01 10:00:00,16.0,12.0,30.13,WSW,248,12.0,15.0,84,0.00,,,0.00,Wunderground v.1.15,2013-02-01 15:00:00,
2013-02-01 10:10:00,15.8,11.3,30.14,West,266,13.0,13.0,82,0.00,,,0.00,Wunderground v.1.15,2013-02-01 15:10:00,
2013-02-01 10:15:00,15.7,10.6,30.14,West,267,12.0,15.0,80,0.00,,,0.00,Wunderground v.1.15,2013-02-01 15:15:00,
2013-02-01 10:20:00,15.6,11.6,30.14,West,263,12.0,15.0,84,0.00,,,0.00,Wunderground v.1.15,2013-02-01 15:20:00,
2013-02-01 10:25:00,15.6,11.1,30.14,WSW,254,12.0,15.0,82,0.00,,,0.00,Wunderground v.1.15,2013-02-01 15:25:00,
2013-02-01 16:05:00,14.5,9.7,30.15,SW,232,10.0,12.0,81,0.00,,,0.00,Wunderground v.1.15,2013-02-01 21:05:00,
2013-02-01 16:10:00,14.5,10.0,30.15,WSW,242,11.0,12.0,82,0.00,,,0.00,Wunderground v.1.15,2013-02-01 21:10:00,
2013-02-01 16:15:00,14.4,9.9,30.16,SW,234,10.0,13.0,82,0.00,,,0.00,Wunderground v.1.15,2013-02-01 21:15:00,
2013-02-01 16:20:00,14.3,9.0,30.16,SW,229,10.0,11.0,79,0.00,,,0.00,Wunderground v.1.15,2013-02-01 21:20:00,
2013-02-01 16:30:00,14.3,8.7,30.16,SW,221,11.0,11.0,78,0.00,,,0.00,Wunderground v.1.15,2013-02-01 21:30:00,
2013-02-01 16:40:00,14.2,8.0,30.15,SW,228,10.0,11.0,76,0.00,,,0.00,Wunderground v.1.15,2013-02-01 21:40:00,
2013-02-01 16:50:00,14.1,7.9,30.15,SW,223,10.0,15.0,76,0.00,,,0.00,Wunderground v.1.15,2013-02-01 21:50:00,
2013-02-01 16:55:00,13.7,8.4,30.15,SW,219,10.0,20.0,79,0.00,,,0.00,Wunderground v.1.15,2013-02-01 21:55:00,
2013-02-01 17:00:00,13.8,8.5,30.15,SW,229,11.0,11.0,79,0.00,,,0.00,Wunderground v.1.15,2013-02-01 22:00:00,
2013-02-01 17:05:00,13.9,9.1,30.15,SSW,209,11.0,11.0,81,0.00,,,0.00,Wunderground v.1.15,2013-02-01 22:05:00,
2013-02-01 17:10:00,13.7,9.2,30.15,WSW,250,10.0,10.0,82,0.00,,,0.00,Wunderground v.1.15,2013-02-01 22:10:00,
2013-02-01 17:15:00,13.8,8.8,30.15,SW,226,11.0,14.0,80,0.00,,,0.00,Wunderground v.1.15,2013-02-01 22:15:00,
2013-02-01 17:25:00,13.5,8.8,30.15,SW,227,11.0,12.0,81,0.00,,,0.00,Wunderground v.1.15,2013-02-01 22:25:00,
2013-02-01 17:30:00,13.9,8.3,30.15,SW,225,10.0,10.0,78,0.00,,,0.00,Wunderground v.1.15,2013-02-01 22:30:00,
2013-02-01 17:35:00,13.7,8.4,30.15,SW,215,10.0,15.0,79,0.00,,,0.00,Wunderground v.1.15,2013-02-01 22:35:00,
2013-02-01 17:40:00,13.9,9.1,30.15,WSW,238,11.0,11.0,81,0.00,,,0.00,Wunderground v.1.15,2013-02-01 22:40:00,
2013-02-01 17:45:00,13.8,9.0,30.15,SW,220,12.0,12.0,81,0.00,,,0.00,Wunderground v.1.15,2013-02-01 22:45:00,
2013-02-01 17:55:00,13.9,8.0,30.15,SW,222,9.0,11.0,77,0.00,,,0.00,Wunderground v.1.15,2013-02-01 22:55:00,
2013-02-01 18:00:00,13.9,7.7,30.15,SSW,200,10.0,12.0,76,0.00,,,0.00,Wunderground v.1.15,2013-02-01 23:00:00,
2013-02-01 18:05:00,14.1,8.5,30.15,SW,223,10.0,12.0,78,0.00,,,0.00,Wunderground v.1.15,2013-02-01 23:05:00,
2013-02-01 18:10:00,13.8,7.9,30.15,WSW,242,11.0,11.0,77,0.00,,,0.00,Wunderground v.1.15,2013-02-01 23:10:00,
2013-02-01 18:15:00,13.9,8.0,30.15,SW,216,12.0,12.0,77,0.00,,,0.00,Wunderground v.1.15,2013-02-01 23:15:00,
2013-02-01 18:25:00,13.8,7.9,30.15,SW,228,10.0,11.0,77,0.00,,,0.00,Wunderground v.1.15,2013-02-01 23:25:00,
2013-02-01 18:30:00,14.1,9.3,30.15,SW,218,10.0,18.0,81,0.00,,,0.00,Wunderground v.1.15,2013-02-01 23:30:00,
2013-02-01 18:35:00,13.7,8.7,30.15,SW,222,10.0,18.0,80,0.00,,,0.00,Wunderground v.1.15,2013-02-01 23:35:00,
2013-02-01 18:40:00,13.9,9.4,30.15,SW,225,11.0,11.0,82,0.00,,,0.00,Wunderground v.1.15,2013-02-01 23:40:00,
2013-02-01 18:50:00,13.6,8.3,30.15,SW,217,12.0,19.0,79,0.00,,,0.00,Wunderground v.1.15,2013-02-01 23:50:00,
2013-02-01 19:00:00,13.7,8.4,30.15,SSW,207,11.0,15.0,79,0.00,,,0.00,Wunderground v.1.15,2013-02-02 00:00:00,
2013-02-01 19:05:00,13.8,8.8,30.15,SW,215,10.0,20.0,80,0.00,,,0.00,Wunderground v.1.15,2013-02-02 00:05:00,
2013-02-01 19:10:00,13.8,8.8,30.15,SSW,210,11.0,11.0,80,0.00,,,0.00,Wunderground v.1.15,2013-02-02 00:10:00,
2013-02-01 19:20:00,13.8,8.5,30.15,SSW,201,11.0,15.0,79,0.00,,,0.00,Wunderground v.1.15,2013-02-02 00:20:00,
2013-02-01 19:25:00,13.7,8.7,30.15,SW,229,12.0,15.0,80,0.00,,,0.00,Wunderground v.1.15,2013-02-02 00:25:00,
2013-02-01 19:35:00,13.6,8.3,30.15,SW,228,11.0,12.0,79,0.00,,,0.00,Wunderground v.1.15,2013-02-02 00:35:00,
2013-02-01 19:40:00,13.7,8.4,30.15,SW,217,11.0,11.0,79,0.00,,,0.00,Wunderground v.1.15,2013-02-02 00:40:00,
2013-02-01 19:50:00,13.7,8.7,30.15,WSW,242,12.0,12.0,80,0.00,,,0.00,Wunderground v.1.15,2013-02-02 00:50:00,
2013-02-01 19:55:00,13.5,8.2,30.15,SSW,200,13.0,16.0,79,0.00,,,0.00,Wunderground v.1.15,2013-02-02 00:55:00,
2013-02-01 20:05:00,13.5,8.5,30.15,SW,227,12.0,13.0,80,0.00,,,0.00,Wunderground v.1.15,2013-02-02 01:05:00,
2013-02-01 20:10:00,13.5,8.5,30.15,SW,218,11.0,12.0,80,0.00,,,0.00,Wunderground v.1.15,2013-02-02 01:10:00,
2013-02-01 20:15:00,13.5,8.5,30.15,SW,234,11.0,12.0,80,0.00,,,0.00,Wunderground v.1.15,2013-02-02 01:15:00,
2013-02-01 20:20:00,13.3,8.6,30.14,SW,215,11.0,11.0,81,0.00,,,0.00,Wunderground v.1.15,2013-02-02 01:20:00,
2013-02-01 20:25:00,13.2,8.5,30.14,SW,225,10.0,11.0,81,0.00,,,0.00,Wunderground v.1.15,2013-02-02 01:25:00,
2013-02-01 20:30:00,13.3,9.1,30.14,SW,234,9.0,10.0,83,0.00,,,0.00,Wunderground v.1.15,2013-02-02 01:30:00,
2013-02-01 20:40:00,12.9,7.9,30.14,SW,223,11.0,11.0,80,0.00,,,0.00,Wunderground v.1.15,2013-02-02 01:40:00,
2013-02-01 20:45:00,13.2,8.5,30.14,SW,227,12.0,12.0,81,0.00,,,0.00,Wunderground v.1.15,2013-02-02 01:45:00,
2013-02-01 20:50:00,13.1,8.6,30.14,SW,214,11.0,13.0,82,0.00,,,0.00,Wunderground v.1.15,2013-02-02 01:50:00,
2013-02-01 20:55:00,13.1,8.6,30.14,SW,220,11.0,16.0,82,0.00,,,0.00,Wunderground v.1.15,2013-02-02 01:55:00,
2013-02-01 21:00:00,13.1,9.2,30.14,SW,233,11.0,13.0,84,0.00,,,0.00,Wunderground v.1.15,2013-02-02 02:00:00,
2013-02-01 21:10:00,12.6,9.5,30.13,SW,236,11.0,14.0,87,0.00,,,0.00,Wunderground v.1.15,2013-02-02 02:10:00,
2013-02-01 21:15:00,12.7,9.8,30.13,SW,225,11.0,14.0,88,0.00,,,0.00,Wunderground v.1.15,2013-02-02 02:15:00,
2013-02-01 21:20:00,12.5,9.6,30.13,SW,230,11.0,11.0,88,0.00,,,0.00,Wunderground v.1.15,2013-02-02 02:20:00,
2013-02-01 21:25:00,12.5,9.9,30.13,SW,233,11.0,15.0,89,0.00,,,0.00,Wunderground v.1.15,2013-02-02 02:25:00,
2013-02-01 21:30:00,12.6,9.7,30.13,WSW,242,12.0,14.0,88,0.00,,,0.00,Wunderground v.1.15,2013-02-02 02:30:00,
2013-02-01 21:35:00,12.6,9.7,30.13,SW,229,12.0,14.0,88,0.00,,,0.00,Wunderground v.1.15,2013-02-02 02:35:00,
2013-02-01 21:45:00,12.7,9.6,30.13,SW,227,13.0,16.0,87,0.00,,,0.00,Wunderground v.1.15,2013-02-02 02:45:00,
2013-02-01 21:50:00,12.6,9.5,30.13,SW,236,13.0,13.0,87,0.00,,,0.00,Wunderground v.1.15,2013-02-02 02:50:00,
2013-02-01 21:55:00,12.5,9.6,30.13,SW,230,13.0,14.0,88,0.00,,,0.00,Wunderground v.1.15,2013-02-02 02:55:00,
2013-02-01 22:00:00,12.0,8.9,30.13,SW,234,13.0,13.0,87,0.00,,,0.00,Wunderground v.1.15,2013-02-02 03:00:00,
2013-02-01 22:05:00,12.0,9.1,30.13,WSW,241,14.0,15.0,88,0.00,,,0.00,Wunderground v.1.15,2013-02-02 03:05:00,
2013-02-01 22:15:00,11.9,9.0,30.13,SW,236,13.0,15.0,88,0.00,,,0.00,Wunderground v.1.15,2013-02-02 03:15:00,
2013-02-01 22:20:00,11.9,9.0,30.13,SW,236,13.0,13.0,88,0.00,,,0.00,Wunderground v.1.15,2013-02-02 03:20:00,
2013-02-01 22:25:00,11.8,8.9,30.13,WSW,245,12.0,14.0,88,0.00,,,0.00,Wunderground v.1.15,2013-02-02 03:25:00,
2013-02-01 22:30:00,11.7,9.1,30.13,SW,225,12.0,12.0,89,0.00,,,0.00,Wunderground v.1.15,2013-02-02 03:30:00,
2013-02-01 22:35:00,11.6,9.0,30.14,SW,234,11.0,12.0,89,0.00,,,0.00,Wunderground v.1.15,2013-02-02 03:35:00,
2013-02-01 22:40:00,11.8,9.2,30.13,SW,232,10.0,10.0,89,0.00,,,0.00,Wunderground v.1.15,2013-02-02 03:40:00,
2013-02-01 22:50:00,11.9,9.3,30.14,SW,232,10.0,10.0,89,0.00,,,0.00,Wunderground v.1.15,2013-02-02 03:50:00,
2013-02-01 22:55:00,11.8,9.2,30.13,SW,233,10.0,10.0,89,0.00,,,0.00,Wunderground v.1.15,2013-02-02 03:55:00,
2013-02-01 23:00:00,11.8,9.2,30.13,WSW,243,9.0,9.0,89,0.00,,,0.00,Wunderground v.1.15,2013-02-02 04:00:00,
2013-02-01 23:05:00,11.8,9.2,30.13,SW,222,9.0,10.0,89,0.00,,,0.00,Wunderground v.1.15,2013-02-02 04:05:00,
2013-02-01 23:10:00,11.8,8.9,30.13,WSW,238,10.0,10.0,88,0.00,,,0.00,Wunderground v.1.15,2013-02-02 04:10:00,
2013-02-01 23:20:00,11.7,8.8,30.13,SW,230,12.0,16.0,88,0.00,,,0.00,Wunderground v.1.15,2013-02-02 04:20:00,
2013-02-01 23:25:00,12.1,9.5,30.13,SW,236,13.0,16.0,89,0.00,,,0.00,Wunderground v.1.15,2013-02-02 04:25:00,
2013-02-01 23:30:00,12.0,9.1,30.13,WSW,237,12.0,12.0,88,0.00,,,0.00,Wunderground v.1.15,2013-02-02 04:30:00,
2013-02-01 23:35:00,11.8,8.7,30.13,SW,236,12.0,12.0,87,0.00,,,0.00,Wunderground v.1.15,2013-02-02 04:35:00,
2013-02-01 23:40:00,11.9,8.8,30.13,SW,236,12.0,14.0,87,0.00,,,0.00,Wunderground v.1.15,2013-02-02 04:40:00,
2013-02-01 23:45:00,11.8,8.7,30.13,SW,229,11.0,14.0,87,0.00,,,0.00,Wunderground v.1.15,2013-02-02 04:45:00,
2013-02-01 23:55:00,11.9,8.8,30.13,WSW,238,10.0,12.0,87,0.00,,,0.00,Wunderground v.1.15,2013-02-02 04:55:00,